Regional Weather Roundup
Issued by NWS Mobile, AL

Home | Current Version | Previous Version | Text Only | Print | Product List | Glossary On
Versions: 1 2 3 4 5 6 7 8 9 10 11 12 13 14 15 16 17 18 19 20 21 22 23 24 25 26 27 28 29 30 31 32 33 34 35 36 37 38 39 40 41 42 43 44 45 46 47 48 49 50
000
ASUS44 KMOB 050116
RWRMOB
REGIONAL WEATHER ROUNDUP
NATIONAL WEATHER SERVICE MOBILE AL
800 PM CDT MON MAY 04 2015

ALZ061>064-050200-
COASTAL ALABAMA


CITY           SKY/WX    TMP DP  RH WIND       PRES   REMARKS
MOBILE REG APT PTCLDY    70  58  65 SE6       30.18F
BROOKLEY FIELD CLEAR     73  62  68 SE6       30.19S
GULF SHORES    CLEAR     69  61  77 SE5       30.18F

$$

ALZ051>060-050200-
INTERIOR SOUTHWEST AND SOUTH CENTRAL ALABAMA


CITY           SKY/WX    TMP DP  RH WIND       PRES   REMARKS
ANDALUSIA/OPP  CLEAR     73  55  53 CALM      30.20S
EVERGREEN      CLEAR     71  55  56 CALM      30.20R
FLORALA        CLEAR     71  59  65 S3        30.23R
GREENVILLE     MOCLDY    70  59  68 CALM      30.21R

$$

FLZ001>006-050200-
WESTERN FLORIDA PANHANDLE


CITY           SKY/WX    TMP DP  RH WIND       PRES   REMARKS
CRESTVIEW      CLEAR     69  56  62 CALM      30.22S
DESTIN         PTCLDY    74  62  66 S5        30.19F
DUKE FIELD     PTCLDY    70  57  63 S5        30.20S
MARY ESTHER    CLEAR     73  60  65 SE5       30.19S
MILTON         PTCLDY    72  60  66 S5        30.20S
PENSACOLA      CLEAR     71  59  65 SE7       30.19S
NAS PENSACOLA  PTCLDY    73  61  65 SE8       30.18F
VALPARAISO     PTCLDY    73  61  67 S6        30.20S

$$

...MARINE OBSERVATIONS...

STATION/POSITION TIME  SKY/WX   TEMP    WIND        PRES    VSBY
                                AIR SEA DIR/SP/G
                 (UTC)          (F)     (DEG/KT/KT) (MB)    (MI)
PASCAGOULA       0000            75     150/ 11/ 17 1021.5F
PETIT BOIS ISL   0000            75     140/ 11/ 14 1021.9F
E DAUPHIN ISLAND 0100            75     130/ 17/ 19 1021.5S
MIDDLE BAY LIGHT 0000            75     150/ 11     1021.7R
USCG MOBILE BAY  0006            75 73  190/  7/ 11 1021.1R
STATE DOCKS      0006            76 70              1021.8R
MEAHER PARK      0100            75     120/  3     1021.7S
FORT MORGAN      0006            75     160/ 15/ 17 1021.4S
12 S ORANGE BCH  0050            75 75  120/ 14/ 16 1020.9F
WVE H/P(F/S)=  4/ 7

PENSACOLA BAY    0000            78 78  150/  3/  7 1022.7R
64 S DAUPHIN ISL 0050            75 75  110/ 19/ 21 1021.3S
WVE H/P(F/S)=  6/ 6

67 S FORT MORGAN 0030            74                 1020.7F
115 SE PENSACOLA 0050            73 75   80/ 10/ 12 1021.9F
WVE H/P(F/S)=  5/ 6

MID GULF/42001   0050            76 79  130/ 10/ 12 1017.8F
WVE H/P(F/S)=  6/ 6

EAST GULF/42003  0050            77 80   80/ 16/ 19 1019.4R
WVE H/P(F/S)=  7/ 8


$$

...NEARBY LOCATIONS

CITY           SKY/WX    TMP DP  RH WIND       PRES   REMARKS
GULFPORT       PTCLDY    74  63  68 SE10      30.16S
BILOXI         PTCLDY    75  63  66 SE9       30.17S
PASCAGOULA     PTCLDY    67  62  84 CALM      30.17F
HATTIESBURG    PTCLDY    76  58  53 S9        30.17R
LAUREL         PTCLDY    75  57  53 S8        30.17S
MERIDIAN       CLEAR     74  53  48 E6        30.17R
MERIDIAN NAS   CLEAR     73  52  47 E6        30.18R
MONTGOMERY     PTCLDY    74  56  53 CALM      30.21R
MAXWELL AFB    CLEAR     71  58  64 CALM      30.20R
TROY           CLEAR     69  55  60 CALM      30.23R
FORT RUCKER    MOCLDY    70  53  54 CALM      30.20R
DALEVILLE      PTCLDY    73  51  46 E2        30.21R
DOTHAN         PTCLDY    72  54  53 E3        30.25R

$$

...OTHER SURROUNDING LOCATIONS...

CITY           SKY/WX    TMP DP  RH WIND       PRES   REMARKS
BIRMINGHAM     PTCLDY    73  55  53 E3        30.24R
TUSCALOOSA     CLEAR     73  58  59 SE5       30.20R
COLUMBUS GA    CLEAR     75  50  41 E3        30.23R
PANAMA CITY    NOT AVBL
TALLAHASSEE    PTCLDY    76  57  51 E7        30.21R
BATON ROUGE    MOCLDY    75  64  68 E8        30.12S
NEW ORLEANS    MOCLDY    75  63  66 SE15G22   30.14R
SLIDELL        PTCLDY    74  64  71 SE6       30.15S
JACKSON        PTCLDY    74  58  57 SE5       30.14R
MCCOMB         CLEAR     72  60  66 SE8       30.15R

$$

...SURROUNDING MARINE OBSERVATIONS...

STATION/POSITION TIME  SKY/WX   TEMP    WIND        PRES    VSBY
                                AIR SEA DIR/SP/G
                 (UTC)          (F)     (DEG/KT/KT) (MB)    (MI)
WAVELAND         0000            75 77  130/ 14/ 19 1021.1F
PASCAGOULA RGN A 0000            76     140/ 10/ 15 1021.2F
PASCAGOULA PORT  0000               78                N/A
GRAND ISLE       0000            76 77  120/  8/ 14 1020.0R
SOUTHWEST PASS   0100            76     110/ 22/ 25 1020.4R
PILOT STATION E  0006            76 67  110/ 25/ 29 1020.5R
SHELL BEACH      0000            75 77  120/ 17/ 21 1020.1F
PANAMA CITY      0006            75 78  180/  6/  8 1021.7R
APALACHICOLA     0006            75 73  240/  2/  2 1021.9R
TYNDALL TOWER C  0100            73      70/  4/  4 1022.2R
S APLCHCLA/42036 0050            74 75   20/ 12/ 14 1021.6F
WVE H/P(F/S)=  3/ 7


$$




USA.gov is the U.S. government's official web portal to all federal, state and local government web resources and services.